Weather History for Nagpur Sonegaon, India

Change the Weather History Date:

Wednesday, January 23, 2013

  Actual Average Record
Temperature  
Mean Temperature 68 °F -  
Max Temperature 82 °F 87 °F - ()
Min Temperature 53 °F 58 °F - ()
Cooling Degree Days 2    
Growing Degree Days 18 (Base 50)    
Moisture  
Dew Point 53 °F    
Average Humidity 56    
Maximum Humidity 78    
Minimum Humidity 30    
Precipitation  
Precipitation 0.00 in 0.03 in - ()
Sea Level Pressure  
Sea Level Pressure 30.04 in    
Wind  
Wind Speed 3 mph ()    
Max Wind Speed 6 mph    
Max Gust Speed -    
Visibility 2.1 miles    
Events      
T = Trace of Precipitation, MM = Missing Value Source: Averaged Metar Reports

Daily Weather History Graph

Daily Weather History Graph

Search for Another Location

Airport:

Trip Planner

Search our weather history database for the weather conditions in past years. The results will help you decide how hot, cold, wet, or windy it might be!

Date:

Astronomy

Jan. 23, 2013 Rise Set
Actual Time 6:53 AM IST 5:58 PM IST
Civil Twilight 6:29 AM IST 6:21 PM IST
Nautical Twilight 6:02 AM IST 6:48 PM IST
Astronomical Twilight 5:35 AM IST 7:15 PM IST
Moon 2:51 PM IST (1/23) 3:36 AM IST (1/23)
Length of Visible Light 11h 52m
Length of Day
11h 05m
Waxing Gibbous, 86% of the Moon is Illuminated
Jan 23
Waxing Gibbous
Jan 27
Full
Feb 3
Last Quarter
Feb 10
New
Feb 18
First Quarter

Hourly Weather History & Observations

Time (IST) Temp. Dew Point Humidity Pressure Visibility Wind Dir Wind Speed Gust Speed Precip Events Conditions
12:10 AM 64.4 °F 48.2 °F 56% 30.06 in 2.5 mi NE 4.6 mph - N/A   Haze
1:10 AM 62.6 °F 46.4 °F 55% 30.04 in 2.5 mi NE 3.5 mph - N/A   Haze
2:10 AM 62.6 °F 44.6 °F 52% 30.04 in 2.5 mi NE 3.5 mph - N/A   Haze
2:30 AM 62 °F 54 °F 66% 30.02 in 1 mi NE 3.5 mph - -   Haze
3:10 AM 62.6 °F 44.6 °F 52% 30.04 in 2.5 mi NE 2.3 mph - N/A   Haze
4:10 AM 60.8 °F 44.6 °F 55% 30.01 in 2.5 mi NE 2.3 mph - N/A   Haze
4:40 AM 60.8 °F 44.6 °F 55% 30.01 in 2.5 mi NNE 2.3 mph - N/A   Haze
5:10 AM 59.0 °F 42.8 °F 55% 30.01 in 2.5 mi Calm Calm - N/A   Haze
5:30 AM 55 °F 50 °F 77% 30.03 in 1 mi Calm Calm - -   Haze
6:10 AM 59.0 °F 42.8 °F 55% 30.04 in 2.5 mi Calm Calm - N/A   Haze
7:10 AM 59.0 °F 44.6 °F 59% 30.06 in 1.9 mi Calm Calm - N/A   Haze
8:10 AM 62.6 °F 46.4 °F 55% 30.12 in 1.9 mi North 3.5 mph - N/A   Haze
8:30 AM 60 °F 53 °F 70% 30.12 in 1 mi NE 3.5 mph - -   Haze
9:10 AM 62.6 °F 46.4 °F 55% 30.12 in 1.9 mi NNE 3.5 mph - N/A   Haze
10:10 AM 66.2 °F 55.4 °F 68% 30.12 in 1.9 mi ENE 3.5 mph - N/A   Haze
11:10 AM 71.6 °F 60.8 °F 69% 30.12 in 1.9 mi NE 5.8 mph - N/A   Haze
11:30 AM 74 °F 61 °F 54% 30.08 in 1 mi NE 4.6 mph - -   Haze
12:10 PM 77.0 °F 62.6 °F 61% 30.09 in 2.2 mi ESE 5.8 mph - N/A   Haze
1:10 PM 78.8 °F 50.0 °F 36% 30.06 in 2.5 mi SE 4.6 mph - N/A   Haze
2:10 PM 84.2 °F 50.0 °F 30% 30.04 in 3.1 mi ESE 3.5 mph - N/A   Haze
2:30 PM 81 °F 64 °F 47% 29.98 in 2 mi East 3.5 mph - -   Haze
3:10 PM 78.8 °F 64.4 °F 61% 30.01 in 3.1 mi East 3.5 mph - N/A   Haze
4:10 PM 78.8 °F 62.6 °F 57% 30.01 in 3.1 mi ENE 3.5 mph - N/A   Haze
5:10 PM 77.0 °F 50.0 °F 39% 30.01 in 3.1 mi East 3.5 mph - N/A   Haze
5:30 PM 75 °F 64 °F 60% 29.97 in 2 mi East 2.3 mph - -   Haze
6:10 PM 75.2 °F 64.4 °F 69% 30.01 in 1.9 mi East 2.3 mph - N/A   Haze
7:10 PM 69.8 °F 62.6 °F 78% 30.01 in 1.9 mi ENE 2.3 mph - N/A   Haze
8:10 PM 73.4 °F 51.8 °F 47% 30.04 in 1.9 mi ENE 3.5 mph - N/A   Haze
9:10 PM 73.4 °F 50.0 °F 44% 30.04 in 1.9 mi ENE 2.3 mph - N/A   Haze
10:10 PM 73.4 °F 50.0 °F 44% 30.06 in 1.9 mi ENE 3.5 mph - N/A   Haze
11:10 PM 71.6 °F 50.0 °F 46% 30.04 in 1.9 mi Calm Calm - N/A   Haze
11:30 PM 68 °F 59 °F 66% 30.03 in 2 mi ENE 5.8 mph - -   Haze